FW3795 Weather Reports


Display with metric or nautical units.
time (UTC)temp
F
wind
direction
speed
MPH
gust
MPH
rain 1hr
in
rain 24hr
in
rain mn
in
humidity
%
barometer
mb
20260507060104 42 299 2.0 5.0 0.00 0.59 0.00 75 1012.4
20260507054556 43 314 3.0 6.0 0.00 0.60 0.00 74 1012.3
20260507053053 43 304 6.0 10.0 0.00 0.60 0.00 73 1012.4
20260507051549 43 280 7.0 12.0 0.00 0.60 0.00 73 1012.5
20260507050046 43 302 10.0 14.0 0.00 0.60 0.00 73 1012.6
20260507044546 43 307 9.0 13.0 0.00 0.60 0.00 74 1012.6
20260507043041 43 271 4.0 9.0 0.00 0.60 0.00 76 1012.8
20260507041538 44 283 6.0 11.0 0.00 0.60 0.00 77 1012.4
20260507040035 44 284 6.0 12.0 0.00 0.60 0.00 79 1012.3
20260507034550 44 284 4.0 8.0 0.00 0.60 0.60 80 1011.8
20260507033038 44 304 7.0 11.0 0.00 0.60 0.60 80 1011.8
20260507031529 44 295 8.0 12.0 0.00 0.60 0.60 80 1011.8
20260507030029 45 289 8.0 13.0 0.00 0.60 0.60 80 1011.6
20260507024545 45 306 7.0 14.0 0.00 0.63 0.60 81 1011.7
20260507023026 46 312 8.0 13.0 0.00 0.63 0.60 82 1011.4
20260507021524 46 309 10.0 14.0 0.00 0.63 0.60 82 1011.5
20260507020024 47 286 8.0 11.0 0.00 0.63 0.60 85 1011.6
20260507014534 46 286 2.0 8.0 0.00 0.64 0.60 87 1011.3
20260507013022 46 315 3.0 5.0 0.00 0.64 0.60 87 1011.5
20260507011534 46 63 0.0 0.0 0.00 0.64 0.60 86 1011.5
20260507010019 46 63 0.0 0.0 0.00 0.64 0.60 86 1011.2
20260507004517 46 63 1.0 2.0 0.00 0.67 0.60 86 1011.1
20260507003018 46 63 1.0 2.0 0.00 0.67 0.60 85 1010.9
20260507001517 47 63 0.0 0.0 0.00 0.67 0.60 85 1010.8
20260507000014 47 63 0.0 3.0 0.00 0.67 0.60 84 1010.8
20260506234513 47 67 2.0 4.0 0.00 0.69 0.60 83 1010.5
20260506233012 48 70 1.0 4.0 0.00 0.69 0.60 82 1010.3
20260506231511 48 70 0.0 2.0 0.00 0.69 0.60 81 1010.5
20260506230109 48 70 1.0 3.0 0.00 0.69 0.60 81 1010.3
20260506224509 48 70 1.0 4.0 0.00 0.69 0.60 81 1010.0
20260506223008 48 70 3.0 5.0 0.00 0.69 0.60 81 1009.9
20260506221507 48 82 3.0 5.0 0.00 0.69 0.60 81 1009.7
20260506220007 48 54 2.0 4.0 0.00 0.69 0.60 81 1010.0
20260506214510 48 54 2.0 6.0 0.00 0.69 0.60 81 1010.0
20260506213004 48 92 2.0 4.0 0.00 0.69 0.60 80 1009.8
20260506211503 48 331 1.0 5.0 0.00 0.69 0.60 81 1009.8
20260506204616 47 300 6.0 9.0 0.00 0.70 0.60 82 1009.6
20260506203059 47 313 5.0 10.0 0.00 0.70 0.60 82 1009.5
20260506201600 47 331 5.0 10.0 0.00 0.70 0.60 82 1009.5
20260506200057 47 329 7.0 11.0 0.00 0.70 0.60 83 1009.3
20260506194556 47 35 3.0 12.0 0.00 0.70 0.60 83 1009.1
20260506193056 46 360 7.0 12.0 0.00 0.70 0.60 83 1008.9
20260506191557 46 336 4.0 8.0 0.00 0.70 0.60 84 1009.0
20260506190054 46 325 6.0 13.0 0.00 0.70 0.60 84 1009.0
20260506184554 46 340 9.0 14.0 0.00 0.70 0.60 85 1008.7
20260506183056 46 289 4.0 12.0 0.00 0.70 0.60 85 1008.7
20260506181552 46 297 6.0 11.0 0.00 0.70 0.60 83 1008.6
20260506180053 47 294 8.0 12.0 0.00 0.70 0.60 83 1008.7
20260506174559 47 317 7.0 11.0 0.00 0.71 0.60 84 1008.3
20260506173117 47 344 6.0 11.0 0.00 0.71 0.60 84 1008.0
20260506171550 47 338 5.0 11.0 0.00 0.71 0.60 85 1008.0
20260506170049 46 333 7.0 10.0 0.00 0.71 0.60 87 1007.7
20260506164547 46 11 5.0 8.0 0.00 0.71 0.60 90 1007.8
20260506163052 46 316 5.0 9.0 0.01 0.71 0.60 91 1007.6
20260506161547 45 15 5.0 9.0 0.02 0.71 0.60 91 1007.6
20260506160043 45 313 4.0 9.0 0.03 0.71 0.60 91 1007.7
20260506154544 45 5 4.0 6.0 0.03 0.71 0.60 91 1007.7
20260506153044 44 57 2.0 5.0 0.02 0.70 0.59 91 1007.8
20260506151538 44 55 3.0 6.0 0.02 0.69 0.57 91 1007.8
20260506150140 43 46 3.0 6.0 0.02 0.68 0.56 91 1007.6
20260506144555 43 47 3.0 7.0 0.02 0.68 0.56 90 1007.4
20260506143043 43 43 4.0 6.0 0.03 0.68 0.56 90 1007.3
20260506141533 42 21 4.0 9.0 0.03 0.67 0.56 90 1007.2
20260506140136 42 349 4.0 10.0 0.04 0.66 0.55 90 1007.3
20260506134534 42 35 4.0 11.0 0.05 0.67 0.55 91 1007.4
20260506133029 42 348 3.0 10.0 0.06 0.66 0.54 90 1007.3
20260506131534 43 37 4.0 11.0 0.07 0.65 0.53 90 1007.2
20260506130025 42 45 3.0 9.0 0.07 0.63 0.51 90 1007.3
20260506124523 42 35 7.0 12.0 0.09 0.62 0.50 90 1007.5
20260506123033 43 36 4.0 10.0 0.08 0.60 0.48 90 1007.6
20260506121518 43 9 7.0 13.0 0.09 0.57 0.46 91 1007.3
20260506120024 43 26 4.0 12.0 0.09 0.56 0.44 90 1007.0
20260506114519 43 46 5.0 13.0 0.08 0.53 0.41 90 1006.9
20260506113115 43 51 9.0 13.0 0.09 0.52 0.40 90 1007.1
20260506111509 44 38 6.0 11.0 0.10 0.49 0.37 91 1007.1
20260506110008 44 25 7.0 13.0 0.10 0.46 0.34 90 1007.0
20260506104507 44 52 9.0 14.0 0.11 0.45 0.33 90 1006.9
20260506103003 44 340 8.0 14.0 0.11 0.43 0.31 90 1007.2
20260506101601 44 27 4.0 13.0 0.08 0.39 0.27 91 1007.1
20260506100108 45 11 7.0 16.0 0.07 0.36 0.24 91 1006.8
20260506094603 45 36 9.0 14.0 0.10 0.34 0.22 90 1006.6
20260506093052 45 45 10.0 16.0 0.10 0.32 0.20 90 1006.6
20260506091549 46 34 7.0 16.0 0.10 0.31 0.19 90 1006.7
20260506090046 46 67 5.0 13.0 0.11 0.28 0.17 90 1007.0
20260506084546 46 33 4.0 16.0 0.09 0.24 0.12 90 1007.1
20260506083041 47 49 7.0 11.0 0.08 0.22 0.10 90 1007.1
20260506081541 47 319 4.0 9.0 0.08 0.21 0.09 90 1007.6
20260506073023 47 59 1.0 4.0 0.01 0.14 0.02 90 1006.7
20260506071519 47 59 0.0 2.0 0.00 0.13 0.01 90 1006.9